Regional Weather Roundup
Issued by NWS

Home | Current Version | Previous Version | Text Only | Print | Product List | Glossary On
Versions: 1 2 3 4 5 6 7 8 9 10 11 12 13 14 15 16 17 18 19 20 21 22 23 24 25 26 27
000
ASUS43 KDMX 152307
RWRIA

WEATHER ROUNDUP FOR IOWA
NATIONAL WEATHER SERVICE DES MOINES IA
600 PM CDT TUE APR 15 2014

NOTE: "FAIR" INDICATES FEW OR NO CLOUDS BELOW 12,000 FEET WITH NO
SIGNIFICANT WEATHER AND/OR OBSTRUCTIONS TO VISIBILITY.

* - THESE STATIONS ARE NOT NWS STATIONS...THUS NOT UNDER NWS
QUALITY CONTROL.  THEY ALSO DO NOT REPORT WEATHER SUCH
AS PRECIPITATION OR FOG.

IAZ001>003-012>014-020>022-031>034-043>046-160000-
   NORTHWEST IOWA

CITY           SKY/WX    TMP DP  RH WIND       PRES   REMARKS
CARROLL *      SUNNY     45  25  45 S18       29.98F
CHEROKEE *     SUNNY     46  25  42 S20       29.95F
DENISON *      SUNNY     46  25  42 S20G26    29.95F
LE MARS *      MOSUNNY   48  25  40 S18G25    29.91F
ORANGE CITY *  MOSUNNY   46  19  34 S17G25    29.91F
SHELDON *      CLOUDY    45  23  42 S18G28    29.92S
SIOUX CITY     MOSUNNY   52  25  35 S20G25    29.91F
SPENCER        PTSUNNY   43  24  47 S16G25    29.96F
STORM LAKE *   SUNNY     43  25  49 S18G25    29.96F
$$

IAZ055>058-069>071-079>083-090>094-160000-
   SOUTHWEST IOWA

CITY           SKY/WX    TMP DP  RH WIND       PRES   REMARKS
ATLANTIC *     SUNNY     48  25  40 S14G21    29.98F
AUDUBON *      SUNNY     48  18  29 S14       30.00F
CLARINDA *     SUNNY     50  27  40 S18       30.02F
COUNCIL BLFS * SUNNY     52  28  40 S15G24    29.94F
CRESTON *      SUNNY     48  23  37 SW15      30.03S
HARLAN  *      SUNNY     48  25  40 S16G25    30.00F
LAMONI         MOSUNNY   48  20  32 S8        30.05F
RED OAK *      SUNNY     50  28  43 S17G24    29.99F
SHENANDOAH *   SUNNY     52  28  40 S16G22    29.99F
$$

IAZ047>049-059>061-072>074-084-160000-
   CENTRAL IOWA

CITY           SKY/WX    TMP DP  RH WIND       PRES   REMARKS
AMES           SUNNY     42  20  41 S8        30.05F
ANKENY *       SUNNY     45  19  36 S9        30.05F
CHARITON *     SUNNY     46  23  39 S14       30.06F
DES MOINES     MOSUNNY   47  19  33 S8        30.06F
GRINNELL*      SUNNY     41  21  45 S8        30.08F
KNOXVILLE *    SUNNY     45  19  36 SW10      30.07F
MARSHALLTOWN   SUNNY     40  20  44 VRB3      30.07F
NEWTON *       SUNNY     41  18  38 S10       30.08F
PELLA *        SUNNY     46  21  36 SW8       30.09F
PERRY *          N/A     45  25  45 S14       30.03F
$$

IAZ004>006-015-016-023>025-035-036-160000-
   NORTH CENTRAL IOWA

CITY           SKY/WX    TMP DP  RH WIND       PRES   REMARKS
ALGONA *       CLOUDY    39  21  48 S15       30.02F WCI  31
CLARION *      PTSUNNY   39  19  45 S9        30.04F WCI  33
ESTHERVILLE    PTSUNNY   39  20  46 S16       29.98F WCI  30
FORT DODGE *   SUNNY     43  23  45 S10G16    30.03F
MASON CITY     MOSUNNY   38  14  37 S9        30.06F WCI  31
FOREST CITY *  SUNNY     37  18  44 S7        30.04S WCI  32
IOWA FALLS *     N/A     39  21  48 S8        30.07F WCI  34
$$

IAZ007>011-017>019-026>030-037>042-050>054-066-160000-
   NORTHEAST IOWA

CITY           SKY/WX    TMP DP  RH WIND       PRES   REMARKS
CEDAR RAPIDS   SUNNY     39  11  31 VRB6      30.10F WCI  35
CHARLES CITY * MOSUNNY   36  16  44 SW9       30.08S WCI  29
CLINTON *      SUNNY     39  12  33 NW12      30.16S WCI  32
DECORAH *      SUNNY     36  12  38 VRB6      30.07S WCI  31
DUBUQUE        SUNNY     36  17  46 W10       30.10F WCI  28
MONTICELLO *   SUNNY     39  14  35 W7G13     30.11S WCI  34
OELWEIN *      SUNNY    N/A N/A N/A SW7       30.09F
WATERLOO       SUNNY     37  13  37 S6        30.09F WCI  32
$$

IAZ064-065-067-068-078-160000-
   EAST CENTRAL IOWA

CITY           SKY/WX    TMP DP  RH WIND       PRES   REMARKS
DAVENPORT      SUNNY     40  14  34 W9        30.14F WCI  34
IOWA CITY      SUNNY     41  13  31 W6        30.14F
MT. PLEASANT * SUNNY     45  18  33 SW9       30.13F
MUSCATINE *    SUNNY     43  12  28 W9        30.14S
QUAD CITIES    SUNNY     42   8  24 W6        30.14R
$$

IAZ062-063-075>077-085>089-095>099-160000-
   SOUTHEAST IOWA

CITY           SKY/WX    TMP DP  RH WIND       PRES   REMARKS
BURLINGTON     SUNNY     44  20  38 W8        30.13S
FAIRFIELD *    SUNNY     43  18  36 SE7       30.11F
FORT MADISON * SUNNY     45  19  36 W5        30.14S
KEOKUK *       SUNNY     46  18  31 NW7G14    30.13S
OSKALOOSA *      N/A     45  19  36 CALM      30.10F
CENTERVILLE *  SUNNY     46  18  31 S8        30.10F
OTTUMWA        SUNNY     45  19  35 SW5       30.10F
WASHINGTON *   SUNNY     43  18  36 W10G16    30.13S
$$

ABBREVIATIONS USED IN REMARKS
   TC - TEMPERATURES IN CELSIUS
  WCI - WIND CHILL INDEX
   HX - HEAT INDEX
  VSB - VISIBILITY
$$




USA.gov is the U.S. government's official web portal to all federal, state and local government web resources and services.